EW2082 Weather Reports


Display with metric or nautical units.
time (UTC)temp
F
wind
direction
speed
MPH
gust
MPH
rain 1hr
in
rain 24hr
in
rain mn
in
humidity
%
barometer
mb
20260504050004 61 178 0.0 1.0 0.00 0.00 0.00 79 1013.7
20260504045004 61 275 0.0 2.0 0.00 0.00 0.00 79 1013.7
20260504044003 61 359 0.0 1.0 0.00 0.00 0.00 79 1013.5
20260504043003 61 257 0.0 0.0 0.00 0.00 0.00 78 1013.5
20260504042004 61 108 0.0 0.0 0.00 0.00 0.00 78 1013.5
20260504041004 61 4 0.0 1.0 0.00 0.00 0.00 77 1013.3
20260504040004 61 143 0.0 1.0 0.00 0.00 0.00 77 1013.3
20260504035003 61 269 0.0 1.0 0.00 0.00 0.00 76 1013.1
20260504034003 61 296 0.0 2.0 0.00 0.00 0.00 76 1013.2
20260504031004 61 233 0.0 1.0 0.00 0.00 0.00 75 1012.7
20260504030004 62 54 0.0 3.0 0.00 0.00 0.00 75 1012.7
20260504025003 62 44 0.0 1.0 0.00 0.00 0.00 75 1012.7
20260504024004 62 38 0.0 2.0 0.00 0.00 0.00 75 1012.5
20260504023003 62 257 0.0 3.0 0.00 0.00 0.00 74 1012.7
20260504022004 62 229 0.0 2.0 0.00 0.00 0.00 74 1012.6
20260504021004 62 53 0.0 2.0 0.00 0.00 0.00 72 1012.4
20260504020005 63 282 0.0 3.0 0.00 0.00 0.00 72 1012.3
20260504015003 63 11 0.0 2.0 0.00 0.00 0.00 71 1012.3
20260504014003 64 1 0.0 2.0 0.00 0.00 0.00 70 1012.2
20260504013004 65 297 0.0 1.0 0.00 0.00 0.00 68 1012.0
20260504012003 66 245 0.0 3.0 0.00 0.00 0.00 67 1011.9
20260504010005 65 25 0.0 2.0 0.00 0.00 0.00 68 1011.9
20260504005004 65 46 0.0 2.0 0.00 0.00 0.00 68 1011.8
20260504003003 66 105 0.0 1.0 0.00 0.00 0.00 68 1011.8
20260504002003 65 91 0.0 2.0 0.00 0.00 0.00 69 1011.9
20260504001003 66 355 0.0 1.0 0.00 0.00 0.00 70 1011.8
20260504000004 65 242 0.0 3.0 0.00 0.00 0.00 71 1011.5
20260503235004 65 24 0.0 2.0 0.00 0.00 0.00 71 1011.5
20260503234003 65 14 0.0 3.0 0.00 0.00 0.00 71 1011.7
20260503232004 67 205 0.0 2.0 0.00 0.00 0.00 69 1011.9
20260503230006 67 2 0.0 6.0 0.00 0.00 0.00 65 1012.0
20260503225004 67 6 0.0 2.0 0.00 0.00 0.00 64 1011.9
20260503224004 67 141 1.0 3.0 0.00 0.00 0.00 65 1012.1
20260503223004 68 340 0.0 3.0 0.00 0.00 0.00 62 1012.2
20260503222004 68 18 0.0 3.0 0.00 0.00 0.00 61 1012.3
20260503221004 68 303 1.0 4.0 0.00 0.00 0.00 58 1012.3
20260503220005 69 63 0.0 3.0 0.00 0.00 0.00 57 1012.4
20260503215004 69 27 1.0 3.0 0.00 0.00 0.00 56 1012.4
20260503214005 69 68 0.0 2.0 0.00 0.00 0.00 55 1012.4
20260503213005 69 14 0.0 2.0 0.00 0.00 0.00 54 1012.5
20260503212004 70 15 0.0 3.0 0.00 0.00 0.00 55 1012.4
20260503211005 70 348 0.0 3.0 0.00 0.00 0.00 55 1012.5
20260503210006 69 312 0.0 4.0 0.00 0.00 0.00 54 1012.4
20260503205005 70 29 0.0 3.0 0.00 0.00 0.00 56 1012.4
20260503203004 70 354 0.0 3.0 0.00 0.00 0.00 54 1012.4
20260503202005 70 101 0.0 4.0 0.00 0.00 0.00 54 1012.4
20260503201004 70 221 1.0 6.0 0.00 0.00 0.00 53 1012.5
20260503200005 70 32 1.0 3.0 0.00 0.00 0.00 53 1012.6
20260503195005 69 357 0.0 6.0 0.00 0.00 0.00 56 1012.6
20260503193004 69 98 0.0 4.0 0.00 0.00 0.00 59 1012.8
20260503192004 69 270 1.0 5.0 0.00 0.00 0.00 57 1012.7
20260503191004 70 27 0.0 5.0 0.00 0.00 0.00 57 1012.9
20260503190006 70 228 0.0 4.0 0.00 0.00 0.00 57 1012.9
20260503185004 70 200 0.0 3.0 0.00 0.00 0.00 57 1012.9
20260503184004 70 186 0.0 1.0 0.00 0.00 0.00 57 1013.0
20260503183005 69 225 0.0 3.0 0.00 0.00 0.00 59 1013.1
20260503182006 68 261 0.0 1.0 0.00 0.00 0.00 59 1013.2
20260503181004 68 234 0.0 1.0 0.00 0.00 0.00 61 1013.2
20260503180005 68 236 0.0 1.0 0.00 0.00 0.00 63 1013.3
20260503175004 67 198 0.0 2.0 0.00 0.00 0.00 60 1013.3
20260503174005 67 75 0.0 1.0 0.00 0.00 0.00 61 1013.4
20260503172004 67 134 0.0 1.0 0.00 0.00 0.00 61 1013.2
20260503151004 63 197 0.0 0.0 0.00 0.00 0.00 77 1012.5
20260503131004 60 351 0.0 0.0 0.00 0.00 0.00 85 1011.4
20260503081004 60 191 0.0 0.0 0.00 0.00 0.00 83 1012.0
20260503071004 60 216 0.0 3.0 0.00 0.00 0.00 85 1011.7